"startDT [UTC]","vpos","CH4 [ppm]","stdev(CH4) [ppm]","CO2 [ppm]","stdev(CO2) [ppm]","H2O_reported [%]","stdev(H2O_reported)","CavityPressure [torr]","CavityTemp [C]","OutletValve","CH4_dry [ppm]","CO2_dry [ppm]","DasTemp [C]","EtalonTemp [C]","WarmBoxTemp [C]","MPVPosition","T_ECpre [C]","T_EC1 [C]","T_EC2 [C]","p_inlet [hPa]","p_in [hPa]","p_out [hPa]","T_inlet [C]","RH_inlet [%]","dwpt_inlet [C]","T_vent [C]","RH_vent [%]","dwpt_vent [C]","flow_vent [l min-1]","flow_inlet [l min-1]","dwpt_sample [C]","T_room [C]"
2015-02-11 00:00:00,0.0,1.92346,0.00037,403.984,0.047,0.2074,0.0077,140.001,45.000,27705.67581,1.92740,404.995,32.882,45.068,45.000,0.00,0.09,-272.69,-272.75,-15,14,-1,19.3,6.9,-17.5,19.8,3.8,-24.2,5.73,2.46,-19.7,26.0
2015-02-11 00:01:00,0.0,1.92316,0.00050,403.900,0.052,0.2257,0.0112,139.999,45.000,27706.36760,1.92748,405.003,32.875,45.068,45.000,0.00,0.09,-272.69,-272.74,-14,15,-1,19.3,7.4,-16.7,19.8,3.7,-24.2,5.73,2.44,-19.7,26.0
2015-02-11 00:02:00,0.0,1.92298,0.00036,403.909,0.051,0.2171,0.0085,140.002,45.000,27709.78272,1.92709,404.969,32.873,45.068,45.000,0.00,0.09,-272.69,-272.75,-14,14,-1,19.3,7.3,-16.9,19.7,3.7,-24.2,5.73,2.44,-19.7,26.0
2015-02-11 00:03:00,0.0,1.92242,0.00091,403.749,0.188,0.2503,0.0382,140.001,45.000,27709.25598,1.92719,404.972,32.874,45.068,45.000,0.00,0.09,-272.69,-272.75,-14,15,-1,19.3,8.2,-15.5,19.7,3.8,-24.2,5.73,2.44,-19.7,25.9
2015-02-11 00:04:00,0.0,1.92265,0.00063,403.809,0.081,0.2372,0.0157,139.999,45.000,27708.92792,1.92717,404.968,32.846,45.068,45.000,0.00,0.09,-272.68,-272.75,-15,14,-1,19.3,8.0,-15.8,19.7,3.7,-24.2,5.73,2.45,-19.7,25.9
2015-02-11 00:05:00,0.0,1.92304,0.00037,403.848,0.077,0.2267,0.0110,139.997,45.000,27707.56617,1.92732,404.954,32.814,45.068,45.000,0.00,0.09,-272.68,-272.74,-14,15,-1,19.2,7.7,-16.3,19.7,3.7,-24.3,5.73,2.44,-19.6,25.9
2015-02-11 00:06:00,0.0,1.92267,0.00066,403.810,0.087,0.2335,0.0149,140.001,45.000,27709.94553,1.92715,404.950,32.773,45.068,45.000,0.00,0.09,-272.69,-272.75,-14,14,-1,19.2,7.8,-16.2,19.7,3.7,-24.3,5.73,2.44,-19.6,25.9
2015-02-11 00:07:00,0.0,1.92305,0.00051,403.932,0.048,0.2201,0.0037,140.001,45.000,27708.50697,1.92722,405.007,32.760,45.068,45.000,0.00,0.09,-272.68,-272.75,-14,15,-1,19.2,7.4,-16.8,19.7,3.8,-24.3,5.73,2.44,-19.6,25.8
2015-02-11 00:08:00,0.0,1.92360,0.00046,403.957,0.039,0.2109,0.0062,140.001,45.000,27708.44200,1.92761,404.987,32.793,45.068,45.000,0.00,0.09,-272.69,-272.74,-14,15,-1,19.1,7.2,-17.2,19.7,3.8,-24.3,5.73,2.45,-19.5,25.9
2015-02-11 00:09:00,0.0,1.92340,0.00040,403.987,0.044,0.2061,0.0081,140.000,45.000,27706.84569,1.92734,404.993,32.813,45.068,45.000,0.00,0.09,-272.68,-272.75,-14,15,-1,19.2,6.9,-17.6,19.7,3.7,-24.3,5.73,2.45,-19.5,25.8
2015-02-11 00:10:00,0.0,1.92318,0.00078,403.963,0.044,0.2117,0.0096,140.000,45.000,27708.93610,1.92718,404.997,32.817,45.068,45.000,0.00,0.09,-272.69,-272.75,-14,15,-1,19.2,7.1,-17.3,19.6,3.8,-24.3,5.73,2.45,-19.5,25.8
2015-02-11 00:11:00,0.0,1.92336,0.00047,403.973,0.025,0.2062,0.0067,140.002,45.000,27707.83594,1.92731,404.978,32.816,45.068,45.000,0.00,0.09,-272.68,-272.74,-14,15,-1,19.2,7.0,-17.5,19.6,3.7,-24.3,5.73,2.46,-19.5,25.8
2015-02-11 00:12:00,0.0,1.92328,0.00045,403.944,0.041,0.2155,0.0077,139.997,45.000,27707.00949,1.92735,404.998,32.814,45.068,45.000,0.00,0.09,-272.68,-272.75,-15,15,-1,19.2,7.3,-17.1,19.6,3.7,-24.3,5.73,2.46,-19.5,25.8
2015-02-11 00:13:00,0.0,1.92319,0.00070,403.932,0.089,0.2264,0.0224,140.001,45.000,27708.85731,1.92753,405.035,32.813,45.067,45.000,0.00,0.09,-272.69,-272.75,-14,15,-1,19.2,7.6,-16.5,19.6,3.8,-24.2,5.73,2.45,-19.5,25.8
2015-02-11 00:14:00,0.0,1.92275,0.00066,403.896,0.069,0.2338,0.0135,139.999,45.000,27708.69227,1.92720,405.039,32.814,45.067,45.000,0.00,0.09,-272.68,-272.75,-14,15,-1,19.2,7.9,-16.0,19.6,3.8,-24.2,5.73,2.45,-19.5,25.8
2015-02-11 00:15:00,0.0,1.92333,0.00046,404.033,0.040,0.2049,0.0074,140.000,45.000,27707.76963,1.92723,405.035,32.816,45.068,45.000,0.00,0.09,-272.69,-272.75,-14,15,-1,19.2,7.0,-17.5,19.6,3.8,-24.2,5.73,2.45,-19.5,25.8
2015-02-11 00:16:00,0.0,1.92352,0.00040,404.043,0.026,0.2013,0.0024,140.001,45.000,27708.83446,1.92735,405.026,32.818,45.068,45.000,0.00,0.09,-272.69,-272.75,-14,15,-1,19.2,6.8,-17.8,19.6,3.8,-24.2,5.73,2.46,-19.4,25.8
2015-02-11 00:17:00,0.0,1.92365,0.00045,404.034,0.037,0.2075,0.0043,140.000,45.000,27705.63076,1.92755,405.046,32.810,45.068,45.000,0.00,0.09,-272.70,-272.75,-14,15,-1,19.2,7.0,-17.5,19.6,3.8,-24.2,5.73,2.46,-19.4,25.8
2015-02-11 00:18:00,0.0,1.92304,0.00090,403.867,0.122,0.2402,0.0229,140.001,45.000,27707.03042,1.92762,405.039,32.775,45.068,45.000,0.00,0.09,-272.68,-272.73,-14,15,-1,19.1,8.0,-15.9,19.6,3.8,-24.2,5.73,2.46,-19.4,25.8
2015-02-11 00:19:00,0.0,1.92326,0.00054,403.949,0.074,0.2235,0.0136,139.999,45.000,27706.76068,1.92752,405.043,32.749,45.068,45.000,0.00,0.09,-272.69,-272.75,-14,15,-1,19.2,7.7,-16.3,19.6,3.8,-24.2,5.73,2.46,-19.4,25.8
2015-02-11 00:20:00,0.0,1.92300,0.00054,403.944,0.081,0.2238,0.0154,140.000,45.000,27707.01935,1.92729,405.037,32.716,45.068,45.000,0.00,0.09,-272.69,-272.75,-14,15,-1,19.1,7.6,-16.6,19.6,3.8,-24.2,5.73,2.47,-19.4,25.8
2015-02-11 00:21:00,0.0,1.92302,0.00039,403.954,0.062,0.2259,0.0110,140.003,45.000,27707.06823,1.92732,405.058,32.697,45.068,45.001,0.00,0.09,-272.68,-272.74,-14,15,-1,19.1,7.6,-16.6,19.6,3.8,-24.2,5.73,2.46,-19.4,25.8
2015-02-11 00:22:00,0.0,1.92322,0.00041,404.029,0.038,0.2088,0.0043,140.002,45.000,27705.04751,1.92719,405.049,32.727,45.068,45.001,0.00,0.09,-272.69,-272.74,-14,15,-1,19.1,7.1,-17.3,19.6,3.8,-24.2,5.73,2.46,-19.4,25.8
2015-02-11 00:23:00,0.0,1.92344,0.00041,404.021,0.036,0.2112,0.0042,140.000,45.000,27704.45444,1.92747,405.052,32.740,45.068,45.001,0.00,0.09,-272.69,-272.74,-14,15,-1,19.1,7.2,-17.2,19.6,3.8,-24.2,5.73,2.47,-19.4,25.8
2015-02-11 00:24:00,0.0,1.92361,0.00044,404.063,0.045,0.2066,0.0028,140.000,45.000,27701.09430,1.92749,405.071,32.698,45.068,45.000,0.00,0.09,-272.68,-272.74,-14,15,-1,19.1,7.0,-17.5,19.5,3.8,-24.3,5.73,2.46,-19.3,25.8
2015-02-11 00:25:00,0.0,1.92371,0.00050,404.018,0.045,0.2161,0.0079,140.001,45.000,27703.93966,1.92785,405.073,32.688,45.068,45.000,0.00,0.09,-272.68,-272.74,-14,15,-1,19.1,7.4,-17.0,19.5,3.8,-24.3,5.73,2.46,-19.3,25.8
2015-02-11 00:26:00,0.0,1.92337,0.00053,403.972,0.083,0.2268,0.0141,140.001,45.000,27701.68835,1.92767,405.079,32.686,45.068,45.000,0.00,0.09,-272.69,-272.75,-14,15,-1,19.0,7.6,-16.6,19.5,3.8,-24.3,5.73,2.47,-19.4,25.7
2015-02-11 00:27:00,0.0,1.92353,0.00049,403.958,0.050,0.2277,0.0043,140.000,45.000,27701.90183,1.92788,405.071,32.686,45.068,45.000,0.00,0.09,-272.69,-272.75,-14,15,-1,19.1,7.7,-16.4,19.5,3.8,-24.2,5.73,2.46,-19.3,25.7
2015-02-11 00:28:00,0.0,1.92300,0.00041,403.963,0.046,0.2273,0.0064,140.002,45.000,27703.17144,1.92735,405.073,32.682,45.068,45.000,0.00,0.09,-272.68,-272.74,-14,15,-1,19.0,7.7,-16.4,19.5,3.8,-24.2,5.73,2.45,-19.3,25.7
2015-02-11 00:29:00,0.0,1.92334,0.00049,404.015,0.052,0.2206,0.0073,140.000,45.000,27701.41616,1.92749,405.094,32.643,45.068,45.000,0.00,0.09,-272.69,-272.74,-14,15,-1,19.0,7.5,-16.8,19.5,3.8,-24.2,5.73,2.46,-19.3,25.7
2015-02-11 00:30:00,0.0,1.92384,0.00033,404.109,0.036,0.2097,0.0039,140.000,45.000,27698.89975,1.92784,405.131,32.626,45.068,45.000,0.00,0.09,-272.69,-272.75,-13,15,-1,19.0,7.2,-17.3,19.5,3.8,-24.2,5.73,2.45,-19.3,25.7
2015-02-11 00:31:00,0.0,1.92408,0.00049,404.122,0.027,0.2101,0.0049,140.003,45.000,27699.81317,1.92807,405.148,32.625,45.068,45.000,0.00,0.09,-272.69,-272.74,-14,15,-1,19.0,7.1,-17.4,19.5,3.8,-24.2,5.73,2.45,-19.3,25.6
2015-02-11 00:32:00,0.0,1.92332,0.00035,403.993,0.053,0.2247,0.0093,139.999,45.000,27702.07562,1.92765,405.092,32.625,45.068,45.000,0.00,0.09,-272.68,-272.74,-14,15,-1,19.0,7.6,-16.6,19.5,3.8,-24.2,5.73,2.45,-19.3,25.6
2015-02-11 00:33:00,0.0,1.92373,0.00058,404.067,0.076,0.2206,0.0126,140.002,45.000,27699.83561,1.92793,405.144,32.608,45.068,45.000,0.00,0.09,-272.69,-272.75,-13,15,-1,19.0,7.6,-16.7,19.5,3.8,-24.2,5.73,2.45,-19.3,25.6
2015-02-11 00:34:00,0.0,1.92373,0.00062,404.086,0.030,0.2171,0.0071,140.001,45.000,27699.31568,1.92782,405.146,32.614,45.068,45.000,0.00,0.09,-272.68,-272.74,-14,15,-1,19.0,7.4,-17.0,19.5,3.8,-24.2,5.73,2.45,-19.3,25.7
2015-02-11 00:35:00,0.0,1.92385,0.00041,404.132,0.047,0.2126,0.0054,140.001,45.000,27700.05039,1.92791,405.173,32.622,45.068,45.000,0.00,0.09,-272.68,-272.74,-14,15,-1,19.0,7.2,-17.2,19.5,3.8,-24.2,5.73,2.45,-19.3,25.7
2015-02-11 00:36:00,0.0,1.92398,0.00044,404.147,0.040,0.2086,0.0030,139.999,45.000,27700.14415,1.92794,405.164,32.625,45.068,45.000,0.00,0.09,-272.69,-272.74,-14,15,-0,19.0,7.1,-17.4,19.5,3.8,-24.2,5.73,2.44,-19.2,25.7
2015-02-11 00:37:00,0.0,1.92402,0.00035,404.123,0.026,0.2122,0.0031,140.000,45.000,27700.85808,1.92804,405.160,32.624,45.068,45.000,0.00,0.09,-272.68,-272.74,-14,15,-0,19.0,7.2,-17.3,19.5,3.8,-24.2,5.73,2.44,-19.2,25.6
2015-02-11 00:38:00,0.0,1.92400,0.00045,404.120,0.025,0.2062,0.0024,140.001,45.000,27701.68536,1.92794,405.128,32.625,45.068,45.000,0.00,0.09,-272.68,-272.74,-15,15,-0,19.0,7.0,-17.6,19.5,3.8,-24.2,5.73,2.44,-19.3,25.6
2015-02-11 00:39:00,0.0,1.92382,0.00038,404.147,0.038,0.2048,0.0023,139.999,45.000,27702.06016,1.92770,405.147,32.626,45.068,45.000,0.00,0.09,-272.69,-272.75,-14,15,-1,19.0,7.0,-17.6,19.5,3.8,-24.2,5.73,2.45,-19.2,25.7
2015-02-11 00:40:00,0.0,1.92396,0.00052,404.159,0.040,0.2057,0.0031,140.001,45.000,27700.45899,1.92789,405.163,32.625,45.068,45.000,0.00,0.09,-272.68,-272.75,-14,15,-0,19.0,7.0,-17.6,19.5,3.8,-24.2,5.73,2.44,-19.2,25.7
2015-02-11 00:41:00,0.0,1.92369,0.00049,404.169,0.032,0.2015,0.0020,140.000,45.000,27701.46275,1.92753,405.153,32.628,45.068,45.000,0.00,0.09,-272.70,-272.74,-15,15,-0,19.0,6.9,-17.8,19.5,3.8,-24.2,5.73,2.44,-19.3,25.6
2015-02-11 00:42:00,0.0,1.92383,0.00028,404.155,0.036,0.2017,0.0025,139.998,45.000,27700.33544,1.92765,405.140,32.641,45.068,45.000,0.00,0.09,-272.69,-272.75,-15,15,-1,19.0,6.8,-17.9,19.5,3.8,-24.2,5.73,2.44,-19.3,25.7
2015-02-11 00:43:00,0.0,1.92389,0.00028,404.182,0.026,0.2007,0.0016,139.998,45.000,27700.23061,1.92773,405.162,32.686,45.068,45.000,0.00,0.09,-272.70,-272.74,-15,15,-0,19.0,6.8,-17.9,19.5,3.8,-24.2,5.73,2.45,-19.3,25.7
2015-02-11 00:44:00,0.0,1.92397,0.00039,404.170,0.035,0.2012,0.0020,139.997,45.000,27700.55790,1.92778,405.153,32.688,45.067,44.999,0.00,0.09,-272.68,-272.75,-14,15,-0,19.0,6.8,-17.9,19.5,3.8,-24.2,5.73,2.45,-19.2,25.7
2015-02-11 00:45:00,0.0,1.92407,0.00035,404.182,0.034,0.2009,0.0021,140.000,45.000,27701.26418,1.92790,405.162,32.687,45.067,44.999,0.00,0.09,-272.69,-272.73,-15,15,-0,19.0,6.8,-17.9,19.4,3.8,-24.2,5.73,2.45,-19.2,25.7
2015-02-11 00:46:00,0.0,1.92399,0.00031,404.192,0.030,0.1997,0.0014,139.999,45.000,27701.43836,1.92779,405.168,32.687,45.067,44.999,0.00,0.09,-272.69,-272.74,-15,15,-0,19.0,6.8,-17.9,19.4,3.8,-24.2,5.73,2.46,-19.2,25.7
2015-02-11 00:47:00,0.0,1.92398,0.00043,404.178,0.029,0.2002,0.0014,139.999,45.000,27701.05355,1.92782,405.155,32.688,45.067,45.000,0.00,0.09,-272.69,-272.75,-15,15,-0,19.0,6.8,-17.9,19.4,3.8,-24.2,5.73,2.46,-19.2,25.6
2015-02-11 00:48:00,0.0,1.92416,0.00039,404.188,0.033,0.1996,0.0016,140.000,45.000,27701.10243,1.92790,405.163,32.685,45.067,45.000,0.00,0.09,-272.68,-272.75,-15,15,-0,19.0,6.8,-17.9,19.4,3.8,-24.2,5.73,2.46,-19.2,25.6
2015-02-11 00:49:00,0.0,1.92373,0.00034,404.167,0.032,0.2011,0.0022,140.000,45.000,27701.50269,1.92761,405.150,32.650,45.068,45.000,0.00,0.09,-272.69,-272.75,-15,15,-0,19.0,6.8,-17.9,19.4,3.8,-24.2,5.73,2.46,-19.2,25.6
2015-02-11 00:50:00,0.0,1.92373,0.00038,404.144,0.035,0.2000,0.0016,139.998,45.000,27701.40542,1.92753,405.122,32.627,45.068,45.000,0.00,0.09,-272.71,-272.75,-15,15,-0,19.0,6.8,-17.9,19.4,3.8,-24.2,5.73,2.46,-19.2,25.6
2015-02-11 00:51:00,0.0,1.92358,0.00056,404.152,0.032,0.1997,0.0020,140.000,45.000,27703.07136,1.92735,405.128,32.617,45.068,45.001,0.00,0.09,-272.69,-272.75,-14,15,-0,19.0,6.8,-17.9,19.4,3.8,-24.2,5.73,2.47,-19.2,25.5
2015-02-11 00:52:00,0.0,1.92366,0.00040,404.122,0.027,0.2026,0.0021,139.999,45.000,27701.29463,1.92751,405.111,32.597,45.068,45.000,0.00,0.09,-272.68,-272.75,-15,15,-0,19.0,6.9,-17.8,19.5,3.8,-24.2,5.73,2.47,-19.2,25.5
2015-02-11 00:53:00,0.0,1.92367,0.00039,404.104,0.033,0.2024,0.0016,139.999,45.000,27701.08033,1.92755,405.094,32.594,45.068,45.001,0.00,0.09,-272.69,-272.75,-15,15,-0,19.0,6.9,-17.7,19.5,3.8,-24.2,5.73,2.47,-19.2,25.5
2015-02-11 00:54:00,0.0,1.92370,0.00028,404.105,0.026,0.2019,0.0024,139.999,45.000,27700.74692,1.92752,405.090,32.599,45.068,45.000,0.00,0.09,-272.69,-272.74,-15,15,-0,19.0,6.9,-17.8,19.5,3.8,-24.2,5.73,2.45,-19.2,25.6
2015-02-11 00:55:00,0.0,1.92378,0.00047,404.104,0.044,0.2015,0.0022,139.998,45.000,27699.57361,1.92763,405.089,32.590,45.068,45.000,0.00,0.09,-272.67,-272.74,-15,15,-0,19.0,6.9,-17.8,19.5,3.8,-24.2,5.73,2.45,-19.2,25.6
2015-02-11 00:56:00,0.0,1.92382,0.00057,404.118,0.021,0.2015,0.0020,140.001,45.000,27701.15751,1.92763,405.101,32.600,45.068,45.000,0.00,0.09,-272.69,-272.74,-16,15,-0,19.0,6.9,-17.8,19.5,3.8,-24.2,5.73,2.44,-19.2,25.6
2015-02-11 00:57:00,0.0,1.92332,0.00039,404.117,0.031,0.1997,0.0021,140.001,45.000,27703.23332,1.92715,405.093,32.583,45.068,45.000,0.00,0.30,-271.13,-272.19,-15,15,-0,19.0,6.8,-17.9,19.4,3.8,-24.2,5.42,2.45,-21.1,25.6
2015-02-11 00:58:00,0.0,1.92357,0.00033,404.111,0.030,0.2009,0.0025,140.003,45.000,27702.97674,1.92734,405.090,32.565,45.068,45.000,0.00,0.09,-272.69,-272.73,-15,15,-0,19.0,6.8,-17.9,19.5,3.8,-24.2,5.73,2.44,-19.2,25.6
2015-02-11 00:59:00,0.0,1.92375,0.00043,404.099,0.037,0.2016,0.0025,139.999,45.000,27700.21532,1.92761,405.084,32.574,45.068,45.000,0.00,0.09,-272.69,-272.74,-16,15,-0,19.0,6.8,-17.9,19.5,3.8,-24.2,5.73,2.44,-19.2,25.6
2015-02-11 01:00:00,0.0,1.92343,0.00038,404.117,0.037,0.2016,0.0028,140.002,45.000,27701.28308,1.92725,405.100,32.568,45.068,45.000,0.00,0.09,-272.71,-272.74,-15,15,-0,19.0,6.9,-17.8,19.5,3.8,-24.2,5.73,2.44,-19.2,25.6
2015-02-11 01:01:00,0.0,1.92378,0.00040,404.093,0.029,0.2035,0.0024,140.000,45.000,27701.33181,1.92763,405.087,32.563,45.068,45.000,0.00,0.09,-272.69,-272.74,-15,15,-0,19.0,6.9,-17.7,19.4,3.8,-24.2,5.73,2.44,-19.2,25.6
2015-02-11 01:02:00,0.0,1.92346,0.00039,404.112,0.022,0.2015,0.0025,140.000,45.000,27702.28910,1.92732,405.095,32.555,45.068,45.000,0.00,0.09,-272.69,-272.73,-15,15,-0,19.0,6.9,-17.8,19.5,3.8,-24.2,5.73,2.44,-19.2,25.6
2015-02-11 01:03:00,0.0,1.92372,0.00042,404.105,0.035,0.2014,0.0019,140.001,45.000,27700.28763,1.92759,405.089,32.552,45.068,45.000,0.00,0.09,-272.68,-272.74,-15,15,-0,19.0,6.8,-17.8,19.4,3.8,-24.2,5.73,2.44,-19.2,25.6
2015-02-11 01:04:00,0.0,1.92348,0.00044,404.138,0.032,0.2002,0.0015,139.999,45.000,27699.86898,1.92725,405.115,32.548,45.068,45.000,0.00,0.09,-272.70,-272.73,-15,15,-0,19.0,6.8,-17.9,19.5,3.9,-24.1,5.73,2.44,-19.1,25.6
2015-02-11 01:05:00,0.0,1.92402,0.00043,404.139,0.029,0.1995,0.0025,140.000,45.000,27698.92537,1.92780,405.113,32.535,45.068,45.000,0.00,0.09,-272.67,-272.73,-15,15,-0,19.0,6.8,-17.9,19.4,3.9,-24.1,5.73,2.45,-19.2,25.6
2015-02-11 01:06:00,0.0,1.92403,0.00051,404.140,0.033,0.2010,0.0019,140.001,45.000,27698.24099,1.92787,405.121,32.528,45.068,45.000,0.00,0.09,-272.69,-272.76,-15,15,-0,19.0,6.8,-17.9,19.4,3.9,-24.1,5.73,2.45,-19.1,25.6
2015-02-11 01:07:00,0.0,1.92381,0.00043,404.146,0.030,0.1998,0.0016,140.000,45.000,27699.68641,1.92758,405.120,32.526,45.068,45.000,0.00,0.09,-272.69,-272.79,-14,15,-0,19.0,6.8,-17.9,19.4,3.9,-24.1,5.73,2.46,-19.1,25.6
2015-02-11 01:08:00,0.0,1.92383,0.00034,404.126,0.034,0.1993,0.0020,140.001,45.000,27698.95387,1.92764,405.101,32.523,45.068,45.000,0.00,0.09,-272.68,-272.75,-14,15,-0,19.0,6.8,-17.9,19.4,3.9,-24.1,5.73,2.46,-19.1,25.6
2015-02-11 01:09:00,0.0,1.92392,0.00036,404.135,0.032,0.1993,0.0020,140.003,45.000,27698.69341,1.92771,405.109,32.538,45.068,45.000,0.00,0.09,-272.69,-272.76,-15,15,-0,19.0,6.8,-18.0,19.4,3.9,-24.1,5.73,2.46,-19.1,25.6
2015-02-11 01:10:00,0.0,1.92382,0.00037,404.131,0.030,0.1991,0.0017,140.002,45.000,27699.59283,1.92758,405.103,32.555,45.068,45.000,0.00,0.09,-272.69,-272.75,-14,15,-0,19.0,6.8,-18.0,19.4,3.9,-24.1,5.73,2.46,-19.1,25.6
2015-02-11 01:11:00,0.0,1.92372,0.00036,404.120,0.033,0.1991,0.0023,140.000,45.000,27699.79677,1.92753,405.092,32.560,45.068,45.000,0.00,0.09,-272.68,-272.74,-14,15,-0,19.0,6.8,-18.0,19.4,3.9,-24.1,5.73,2.47,-19.1,25.6
2015-02-11 01:12:00,0.0,1.92433,0.00034,404.125,0.031,0.2010,0.0017,140.000,45.000,27699.21934,1.92813,405.107,32.561,45.068,45.000,0.00,0.09,-272.68,-272.74,-14,15,-0,19.0,6.8,-17.9,19.4,3.9,-24.1,5.73,2.46,-19.2,25.5
2015-02-11 01:13:00,0.0,1.92357,0.00040,404.106,0.017,0.1992,0.0023,140.000,45.000,27699.38184,1.92738,405.080,32.563,45.068,45.000,0.00,0.09,-272.70,-272.76,-14,15,-0,19.0,6.8,-17.9,19.5,3.9,-24.1,5.73,2.46,-19.1,25.5
2015-02-11 01:14:00,0.0,1.92393,0.00037,404.099,0.041,0.2000,0.0018,139.999,45.000,27697.74678,1.92773,405.075,32.563,45.068,45.000,0.00,0.09,-272.70,-272.74,-14,15,-0,19.1,6.8,-17.9,19.5,3.9,-24.1,5.73,2.46,-19.1,25.5
2015-02-11 01:15:00,0.0,1.92362,0.00040,404.129,0.025,0.1993,0.0016,140.002,45.000,27700.66707,1.92741,405.101,32.573,45.068,45.000,0.00,0.09,-272.70,-272.75,-14,15,-0,19.0,6.8,-17.9,19.5,3.9,-24.1,5.73,2.47,-19.1,25.5
2015-02-11 01:16:00,0.0,1.92390,0.00050,404.121,0.026,0.1991,0.0017,139.998,45.000,27698.67624,1.92770,405.094,32.620,45.068,45.000,0.00,0.09,-272.70,-272.74,-14,15,-0,19.0,6.8,-18.0,19.5,3.9,-24.1,5.73,2.46,-19.1,25.5
2015-02-11 01:17:00,0.0,1.92385,0.00054,404.120,0.039,0.1993,0.0015,140.001,45.000,27698.88112,1.92768,405.094,32.624,45.068,45.000,0.00,0.09,-272.69,-272.76,-14,15,-0,19.1,6.8,-17.9,19.5,3.9,-24.1,5.73,2.46,-19.1,25.6
2015-02-11 01:18:00,0.0,1.92401,0.00053,404.109,0.034,0.2007,0.0022,139.997,45.000,27699.54194,1.92779,405.088,32.625,45.068,45.000,0.00,0.09,-272.68,-272.74,-14,15,-0,19.1,6.8,-17.9,19.5,3.9,-24.1,5.73,2.46,-19.2,25.5
2015-02-11 01:19:00,0.0,1.92356,0.00047,404.119,0.025,0.1997,0.0018,140.000,45.000,27701.43154,1.92737,405.094,32.627,45.067,45.000,0.00,0.09,-272.68,-272.74,-14,15,-0,19.0,6.8,-17.9,19.5,3.9,-24.0,5.73,2.46,-19.1,25.5
2015-02-11 01:20:00,0.0,1.92378,0.00045,404.102,0.019,0.1998,0.0022,140.003,45.000,27700.44648,1.92757,405.079,32.678,45.068,45.000,0.00,0.09,-272.69,-272.75,-14,15,-0,19.0,6.8,-17.9,19.5,3.9,-24.1,5.73,2.44,-19.1,25.6
2015-02-11 01:21:00,0.0,1.92347,0.00045,404.102,0.026,0.2007,0.0016,139.999,45.000,27702.46545,1.92730,405.080,32.688,45.068,45.000,0.00,0.09,-272.68,-272.74,-14,15,-0,19.1,6.8,-17.9,19.5,3.9,-24.1,5.73,2.44,-19.1,25.6
2015-02-11 01:22:00,0.0,1.92353,0.00040,404.088,0.027,0.2003,0.0019,139.998,45.000,27701.70229,1.92733,405.066,32.702,45.068,45.000,0.00,0.09,-272.69,-272.75,-14,15,-0,19.1,6.8,-17.9,19.5,3.9,-24.0,5.73,2.44,-19.1,25.6
2015-02-11 01:23:00,0.0,1.92344,0.00039,404.075,0.036,0.1996,0.0024,139.997,45.000,27700.34422,1.92725,405.049,32.741,45.067,44.999,0.00,0.09,-272.68,-272.75,-15,15,-0,19.1,6.8,-18.0,19.5,3.9,-24.0,5.73,2.44,-19.1,25.6
2015-02-11 01:24:00,0.0,1.92379,0.00053,404.108,0.026,0.1997,0.0021,140.002,45.000,27699.84718,1.92758,405.084,32.754,45.067,44.999,0.00,0.09,-272.69,-272.74,-15,15,-0,19.1,6.8,-17.9,19.5,3.9,-24.1,5.73,2.44,-19.1,25.6
2015-02-11 01:25:00,0.0,1.92368,0.00031,404.104,0.031,0.1991,0.0024,139.999,45.000,27697.70417,1.92745,405.075,32.753,45.067,45.000,0.00,0.09,-272.68,-272.75,-15,15,-0,19.1,6.7,-18.0,19.5,3.9,-24.1,5.73,2.44,-19.1,25.6
2015-02-11 01:26:00,0.0,1.92385,0.00028,404.098,0.030,0.1985,0.0017,140.002,45.000,27698.08114,1.92764,405.068,32.724,45.067,45.000,0.00,0.09,-272.69,-272.75,-14,15,-0,19.1,6.7,-18.0,19.5,3.9,-24.0,5.73,2.44,-19.1,25.6
2015-02-11 01:27:00,0.0,1.92349,0.00039,404.099,0.030,0.1982,0.0020,139.998,45.000,27698.39585,1.92728,405.067,32.688,45.068,45.000,0.00,0.09,-272.69,-272.75,-15,15,-0,19.1,6.7,-18.0,19.5,3.9,-24.1,5.73,2.44,-19.1,25.6
2015-02-11 01:28:00,0.0,1.92298,0.00041,404.102,0.030,0.1961,0.0020,140.001,45.000,27699.80015,1.92670,405.059,32.677,45.068,45.000,0.00,0.09,-272.68,-272.74,-15,15,-0,19.1,6.6,-18.2,19.5,3.9,-24.0,5.73,2.45,-19.1,25.6
2015-02-11 01:29:00,0.0,1.92313,0.00036,404.067,0.021,0.1966,0.0023,140.002,45.000,27700.82274,1.92686,405.028,32.676,45.068,45.001,0.00,0.09,-272.68,-272.73,-15,15,-0,19.1,6.7,-18.1,19.5,3.9,-24.0,5.73,2.45,-19.1,25.6
2015-02-11 01:30:00,0.0,1.92333,0.00033,404.073,0.028,0.1968,0.0019,140.001,45.000,27700.17285,1.92707,405.034,32.666,45.068,45.001,0.00,0.09,-272.69,-272.73,-14,15,-0,19.1,6.7,-18.1,19.5,3.9,-24.0,5.73,2.46,-19.1,25.6
2015-02-11 01:31:00,0.0,1.92326,0.00032,404.061,0.034,0.1984,0.0029,140.000,45.000,27699.38563,1.92704,405.030,32.685,45.069,45.001,0.00,0.09,-272.69,-272.76,-15,15,-0,19.1,6.7,-18.0,19.5,3.9,-24.0,5.73,2.46,-19.1,25.6
2015-02-11 01:32:00,0.0,1.92318,0.00040,404.036,0.037,0.1973,0.0021,140.000,45.000,27700.55166,1.92692,405.000,32.688,45.068,45.000,0.00,0.09,-272.68,-272.75,-14,15,-0,19.1,6.7,-18.0,19.5,3.9,-24.0,5.73,2.46,-19.0,25.6
2015-02-11 01:33:00,0.0,1.92356,0.00033,404.057,0.037,0.1991,0.0016,140.003,45.000,27699.70406,1.92734,405.029,32.683,45.068,45.000,0.00,0.09,-272.68,-272.75,-14,15,-0,19.1,6.7,-18.0,19.5,3.9,-23.9,5.73,2.46,-19.0,25.6
2015-02-11 01:34:00,0.0,1.92346,0.00045,404.032,0.025,0.1994,0.0020,140.000,45.000,27696.77478,1.92727,405.005,32.684,45.068,45.000,0.00,0.09,-272.69,-272.75,-15,15,-0,19.1,6.7,-18.0,19.5,3.9,-23.9,5.73,2.46,-19.1,25.6
2015-02-11 01:35:00,0.0,1.92342,0.00046,404.026,0.023,0.1996,0.0021,140.001,45.000,27697.30783,1.92719,405.000,32.673,45.068,45.000,0.00,0.09,-272.69,-272.75,-15,15,-0,19.1,6.7,-18.0,19.5,3.9,-24.0,5.73,2.46,-19.1,25.6
2015-02-11 01:36:00,0.0,1.92310,0.00051,403.992,0.030,0.1979,0.0017,140.002,45.000,27699.08091,1.92685,404.960,32.639,45.068,45.000,0.00,0.09,-272.69,-272.74,-15,15,-0,19.1,6.7,-18.0,19.5,3.9,-23.9,5.73,2.47,-19.1,25.6
2015-02-11 01:37:00,0.0,1.92304,0.00045,404.010,0.034,0.1977,0.0019,140.001,45.000,27698.67585,1.92684,404.974,32.626,45.068,45.000,0.00,0.09,-272.69,-272.75,-15,15,-0,19.1,6.7,-18.0,19.5,3.9,-23.9,5.73,2.46,-19.1,25.6
2015-02-11 01:38:00,0.0,1.92297,0.00050,404.000,0.033,0.1994,0.0021,139.998,45.000,27698.41083,1.92677,404.973,32.639,45.068,45.000,0.00,0.09,-272.69,-272.75,-15,15,-0,19.1,6.7,-18.0,19.5,3.9,-23.9,5.73,2.47,-19.1,25.6
2015-02-11 01:39:00,0.0,1.92302,0.00043,403.982,0.035,0.2007,0.0019,140.000,45.000,27698.30805,1.92682,404.962,32.688,45.068,45.000,0.00,0.09,-272.69,-272.74,-15,14,-0,19.1,6.8,-17.9,19.5,3.9,-23.9,5.73,2.46,-19.1,25.6
2015-02-11 01:40:00,0.0,1.92275,0.00032,403.969,0.029,0.2008,0.0022,140.000,45.000,27699.73192,1.92660,404.948,32.706,45.068,45.000,0.00,0.09,-272.69,-272.75,-15,15,-0,19.2,6.8,-17.9,19.5,3.9,-23.9,5.73,2.46,-19.1,25.6
2015-02-11 01:41:00,0.0,1.92280,0.00031,403.965,0.033,0.1997,0.0017,139.996,45.000,27698.58974,1.92658,404.941,32.746,45.068,45.000,0.00,0.09,-272.69,-272.74,-14,14,-0,19.2,6.7,-17.9,19.5,3.9,-23.9,5.73,2.46,-19.1,25.6
2015-02-11 01:42:00,0.0,1.92298,0.00047,403.972,0.036,0.2013,0.0021,140.002,45.000,27698.16826,1.92683,404.954,32.750,45.068,45.000,0.00,0.09,-272.68,-272.73,-14,14,-0,19.2,6.8,-17.8,19.5,3.9,-23.9,5.73,2.45,-19.1,25.6
2015-02-11 01:43:00,0.0,1.92311,0.00044,403.973,0.030,0.2019,0.0021,140.001,45.000,27696.49968,1.92690,404.957,32.752,45.068,45.000,0.00,0.09,-272.69,-272.75,-14,14,-0,19.2,6.8,-17.8,19.6,3.9,-23.9,5.73,2.45,-19.1,25.7
2015-02-11 01:44:00,0.0,1.92342,0.00048,403.963,0.024,0.2034,0.0012,140.001,45.000,27695.26276,1.92726,404.956,32.749,45.068,45.000,0.00,0.09,-272.69,-272.75,-14,15,-0,19.2,6.8,-17.7,19.6,3.9,-23.9,5.73,2.45,-19.0,25.7
2015-02-11 01:45:00,0.0,1.92349,0.00047,403.957,0.036,0.2039,0.0022,140.000,45.000,27695.67878,1.92740,404.950,32.737,45.068,45.000,0.00,0.09,-272.68,-272.74,-14,15,-0,19.2,6.9,-17.7,19.6,3.9,-23.9,5.73,2.45,-19.0,25.7
2015-02-11 01:46:00,0.0,1.92341,0.00039,403.954,0.030,0.2052,0.0015,139.999,45.000,27694.72669,1.92733,404.958,32.690,45.068,45.000,0.00,0.09,-272.68,-272.75,-14,15,-0,19.2,6.9,-17.6,19.6,3.9,-23.9,5.73,2.45,-19.1,25.7